Regional Weather Roundup
Issued by NWS Spokane, WA

Home | Current Version | Previous Version | Text Only | Print | Product List | Glossary On
Versions: 1 2 3 4 5 6 7 8 9 10 11 12 13 14 15 16 17 18 19 20 21 22 23 24 25 26 27 28 29 30 31 32 33 34 35 36 37 38 39 40 41 42 43 44 45 46 47 48 49 50
000
NZUS01 KOTX 290610
RWROTX
EASTERN WASHINGTON/NORTHERN IDAHO ROUNDUP
NATIONAL WEATHER SERVICE, SPOKANE WA
1100 PM PDT THU AUG 28 2014

Note: "fair" indicated few or no clouds below 12,000 feet with no
significant weather and/or obstructions to visibility.

...NORTHEAST WASHINGTON AND NORTHERN IDAHO PANHANDLE...

CITY           SKY/WX    TMP DP  RH WIND       PRES   REMARKS
SPOKANE INTL   PTCLDY    70  43  37 SW9       29.95S
SPOKANE DOWNTO CLEAR     70  41  34 SW3       29.94S
COEUR D ALENE  CLEAR     66  45  45 S6        29.96S
DEER PARK      CLEAR     57  41  55 E3        29.95R
SANDPOINT      PTCLDY    55  52  88 CALM      29.97S

...SOUTHEAST WASHINGTON AND SOUTHERN IDAHO PANHANDLE...

CITY           SKY/WX    TMP DP  RH WIND       PRES   REMARKS
WALLA WALLA    CLEAR     73  37  27 S9        29.94S
PULLMAN/MOSCOW CLEAR     56  39  53 CALM      30.01S
LEWISTON       CLEAR     69  43  38 E7        29.95R
LOWELL           N/A     62  54  74 N5        30.00R

...COLUMBIA BASIN...

CITY           SKY/WX    TMP DP  RH WIND       PRES   REMARKS
EPHRATA        MOCLDY    74  43  32 W10       29.91R
MOSES LAKE     PTCLDY    70  44  39 VRB5      29.92S
TRI CITIES     PTCLDY    72  52  49 CALM      29.91R
HERMISTON      PTCLDY    67  50  54 CALM      29.92R
PENDLETON      CLEAR     68  40  35 E8        29.96S

...EAST SLOPES CASCADES...

CITY           SKY/WX    TMP DP  RH WIND       PRES   REMARKS
THE DALLES     CLEAR     76  52  43 W18G26    29.93F
YAKIMA         MOCLDY    73  52  47 N8        29.96R
ELLENSBURG     MOCLDY    67  52  58 NW16      29.99S
WENATCHEE      MOCLDY    73  47  39 NW9       29.95R
OMAK           MOCLDY    71  50  47 N13       29.92R

...SOUTHERN BRITISH COLUMBIA...

CITY           SKY/WX    TMP DP  RH WIND       PRES   REMARKS
PENTICTON      PTCLDY    59  50  72 N7        29.95S

...WESTERN MONTANA...

CITY           SKY/WX    TMP DP  RH WIND       PRES   REMARKS
MISSOULA       PTCLDY    61  42  49 NW6       30.03R

...NEIGHBORING CITIES...

CITY           SKY/WX    TMP DP  RH WIND       PRES   REMARKS
SEATTLE        PTCLDY    65  59  81 SW6       30.04S
CALGARY        CLEAR     48  45  87 SW6       30.07F



USA.gov is the U.S. government's official web portal to all federal, state and local government web resources and services.